Volver al catálogo

USA 577

ActivoMilitarVLEO
NORAD 67489·PAYLOAD·🇺🇸 United States

Lanzado Jan 17, 2026 desde Vandenberg Space Force Base

Loading…

Próximos Pases (próximas 24 horas)

TLE

ObsoletoSource: Mike McCants

Época: Jul 26, 2026, 22:16 UTC

1 67489U 26011F   26207.92808461 0.00000000  00000-0  00000-0 0    02
2 67489  70.0210 137.2383 0002000 286.1340  73.8660 14.96713362    01

Sigue USA 577 en tiempo real con AllMySat

Download on the App Store